Weather in Gia Nghĩa

Vietnam     12°00′27″N   107°41′03″E
temp.,
°C
wind,
m/s
gust,
m/s
humid.,
%
clouds,
%
prec.,
mm/h
press.,
hPa
HPBL,
m
11 may, tue
tue1101:00+20ene009951 0.0 101015
04:00+20ene119952 0.0 101018
07:00+23e018246 0.0 1011193
10:00+33s024376 0.1 10102016
13:00+28w2565100 0.5 1008411
16:00+28ne126499 0.3 1006350
19:00+22sw119495 2.7 100829
22:00+21w009933 1.5 101119
12 may, wed
wed1201:00+21ene009979 2.3 101024
04:00+21ese1198100 0.0 100920
07:00+23ene0092100 0.0 1011130
10:00+29w016161 1.1 10101193
13:00+32wsw334736 2.4 10072002
16:00+21ese2499100 11.4 1006168
19:00+20ene0199100 32.4 100975
22:00+20e119981 1.2 101040
13 may, thu
thu1301:00+20ese119981 3.0 100818
04:00+19e0199100 0.0 100813
07:00+22ene119596 0.0 101092
10:00+32ne125067 0.1 10091409
13:00+33w234197 0.4 10052222
16:00+30s125597 0.2 1004775
19:00+22w2699100 17.5 1007220
22:00+21ese1199100 3.0 100924
14 may, fri
fri1401:00+21e1199100 3.3 100818
04:00+20e119998 0.3 100717
07:00+22e119579 0.3 1009140
10:00+26s008799 3.8 1009361
13:00+28sw1173100 8.2 1007641
16:00+25ese1179100 0.9 100514
19:00+23e118973 1.1 100813
22:00+22ne00959 0.0 100913
15 may, sat
sat1501:00+21e1198100 0.0 100815
04:00+20e119928 0.0 100824
07:00+23e118620 0.0 1009177
10:00+32ese124680 0.0 10081624
13:00+35s223196 0.0 10052923
16:00+31w255256 0.0 1004778
19:00+25sse117817 0.1 100611
22:00